Terminal Aerodrome Forecast
Issued by NWS Jacksonville, FL

Home | Current Version | Previous Version | Text Only | Print | Product List | Glossary On
Versions: 1 2 3 4 5 6 7 8 9 10 11 12 13 14 15 16 17 18 19 20 21 22 23 24 25 26 27
744
FTUS42 KJAX 260549
TAFJAX
TAF
KJAX 260549Z 2606/2706 21003KT P6SM SCT120 BKN250
     FM261300 24006KT P6SM SCT025 SCT200
     FM262000 12008KT P6SM VCTS BKN045CB BKN200 PROB30 2620/2624
      VRB15G30KT 3SM +TSRA BR SCT025 BKN040CB BKN100
     FM270100 09004KT P6SM VCSH BKN050 BKN100 OVC200=

USA.gov is the U.S. government's official web portal to all federal, state and local government web resources and services.